Weather History for EDBM - March, 2013

Change the Weather History Date:

Monday, March 4, 2013

  Actual Average Record
Temperature  
Mean Temperature 38 °F -  
Max Temperature 48 °F - - ()
Min Temperature 29 °F - - ()
Degree Days  
Heating Degree Days 26    
Moisture  
Dew Point 31 °F    
Average Humidity 69    
Maximum Humidity 95    
Minimum Humidity 43    
Precipitation  
Precipitation 0.00 in - - ()
Sea Level Pressure  
Sea Level Pressure 30.21 in    
Wind  
Wind Speed 4 mph ()    
Max Wind Speed 9 mph    
Max Gust Speed -    
Visibility 8.7 miles    
Events      
T = Trace of Precipitation, MM = Missing Value Source: Averaged Metar Reports

Daily Weather History Graph

Daily Weather History Graph

Search for Another Location

Airport or City:

Trip Planner

Search our weather history database for the weather conditions in past years. The results will help you decide how hot, cold, wet, or windy it might be!

Date:

Astronomy

Mar. 04, 2013 Rise Set
Actual Time 6:52 AM CET 5:58 PM CET
Civil Twilight 6:18 AM CET 6:32 PM CET
Nautical Twilight 5:39 AM CET 7:11 PM CET
Astronomical Twilight 5:00 AM CET 7:51 PM CET
Moon 1:14 AM CET (3/4) 9:53 AM CET (3/4)
Length of Visible Light 12h 13m
Length of Day
11h 05m
Waning Gibbous, 55% of the Moon is Illuminated
Mar 4
Waning Gibbous
Mar 4
Last Quarter
Mar 11
New
Mar 19
First Quarter
Mar 27
Full

Hourly Weather History & Observations

Time (CET) Temp. Dew Point Humidity Pressure Visibility Wind Dir Wind Speed Gust Speed Precip Events Conditions
12:00 AM 31 °F 29 °F 90% 30.25 in 10 mi WNW 2.2 mph - -  
1:00 AM 31 °F 30 °F 93% 30.25 in 12 mi West 4.5 mph - -  
2:00 AM 30 °F 29 °F 93% 30.25 in 9 mi SSW 2.2 mph - -  
3:00 AM 31 °F 30 °F 93% 30.25 in 7 mi SW 2.2 mph - -   Overcast
5:00 AM 32 °F 31 °F 92% 30.24 in 6 mi SSW 2.2 mph - -   Overcast
7:00 AM 30 °F 29 °F 95% 30.24 in 4 mi South 2.2 mph - -   Mist
8:00 AM 31 °F 30 °F 93% 30.25 in 4 mi West 2.2 mph - -   Mist
9:00 AM 35 °F 31 °F 79% 30.25 in 6 mi SSE 2.2 mph - -  
11:00 AM 41 °F 33 °F 65% 30.25 in 10 mi South 6.7 mph - -  
12:00 PM 44 °F 33 °F 54% 30.24 in 10 mi SSE 8.9 mph - -   Scattered Clouds
1:00 PM 46 °F 33 °F 50% 30.22 in 11 mi South 8.9 mph - -  
2:00 PM 46 °F 33 °F 48% 30.20 in 12 mi SSE 8.9 mph - -  
3:00 PM 49 °F 35 °F 46% 30.18 in 14 mi SSE 6.7 mph - -  
5:00 PM 47 °F 31 °F 43% 30.15 in 13 mi SSE 8.9 mph - -  
6:00 PM 44 °F 30 °F 47% 30.14 in 16 mi SE 4.5 mph - -  
7:00 PM 42 °F 29 °F 50% 30.14 in 2 mi SE 6.7 mph - -   Light Haze
8:00 PM 39 °F 29 °F 57% 30.14 in 3 mi SSE 4.5 mph - -   Light Haze
9:00 PM 38 °F 29 °F 60% 30.14 in 7 mi SE 4.5 mph - -  
11:00 PM 35 °F 29 °F 69% 30.13 in 9 mi SSE 4.5 mph - -